Regional Weather Roundup
Issued by NWS Newport/Morehead, NC

Current Version | Previous Version | Graphics & Text | Print | Product List | Glossary Off
Versions: 1 2 3 4 5 6 7 8 9 10 11 12 13 14 15 16 17 18 19 20 21 22 23 24 25 26 27 28 29 30 31 32 33 34 35 36 37 38 39 40 41 42 43 44 45 46 47 48 49 50

000
ASUS42 KMHX 020627
RWRMHX
WEATHER ROUNDUP FOR EASTERN NORTH CAROLINA
NATIONAL WEATHER SERVICE NEWPORT/MOREHEAD CITY NC
200 AM EDT THU APR 02 2015

NOTE: "FAIR" INDICATES FEW OR NO CLOUDS BELOW 12,000 FEET
WITH NO SIGNIFICANT WEATHER AND/OR OBSTRUCTIONS TO VISIBILITY

NCZ015>017-031-032-045>047-102-103-020700-
NORTH COAST

CITY           SKY/WX    TMP DP  RH WIND       PRES   REMARKS
EDENTON        CLEAR     43  37  79 SW3       30.31S
ELIZABETH CITY CLEAR     39  33  79 CALM      30.31S
KITTY HAWK     CLEAR     43  32  65 CALM      30.30S
MANTEO         CLEAR     35  32  90 CALM      30.31S

$$

NCZ045>047-081-094-103-104-020700-
CENTRAL COAST

CITY           SKY/WX    TMP DP  RH WIND       PRES   REMARKS
FRISCO         CLEAR     35  30  82 NE5       30.31S
SWANQUARTER      N/A     41 N/A N/A E2        30.27S

$$

NCZ095-097-098-100-101-020700-
SOUTHERN COAST

CITY           SKY/WX    TMP DP  RH WIND       PRES   REMARKS
BEAUFORT       CLEAR     50  36  58 E5        30.30F
CEDAR ISLAND     N/A     50 N/A N/A NE9       30.33F
JACKSONVILLE   CLEAR     49  33  54 E6        30.29F
PINEY ISLAND   CLEAR    N/A N/A N/A E8        30.30F
WILMINGTON     CLEAR     53  36  52 E9        30.28F


$$

NCZ011>013-027>030-043-044-078>080-089-090>093-098-020700-
COASTAL PLAIN

CITY           SKY/WX    TMP DP  RH WIND       PRES   REMARKS
AHOSKIE        CLEAR     37  32  84 S3        30.30F
CLINTON        CLEAR     45  42  88 CALM      30.30R
ELIZABETHTOWN  CLEAR     44  42  93 CALM      30.28R
GOLDSBORO      CLEAR     44  43  98 SE2       30.27S
GREENVILLE     CLEAR     45  37  76 SE6       30.30F
HAVELOCK       CLEAR     43  34  70 SE5       30.31F
KENANSVILLE    CLEAR     40  36  83 CALM      30.30S
KINSTON        CLEAR     45  37  74 CALM      30.30S
NEW BERN       CLEAR     48  37  65 SE7       30.31F
RICHLANDS      CLEAR     45  28  53 E7        30.30S
ROCKY MOUNT    CLEAR     45  35  68 S3        30.30R
WASHINGTON     CLEAR     38  34  84 CALM      30.30F
WHITEVILLE     CLEAR     52  43  73 SE6       30.27S

$$

AMZ130-135-150-152-154-156-158-170-250-252-270-ANZ085-086-088-633-658-670-020700-
MARINE OBSERVATIONS

STATION/POSITION TIME  TEMP    WIND        PRES    WAVE   SWELL
                       AIR SEA DIR/SP/G            HT/PER HT/PER
                 (UTC) (F)     (DEG/KT/KT) (MB)    (FT/S) (FT/S)
CHESAPEAKE LIGHT 0600   43     210/ 14/ 14 1026.3
64 E VA BEACH    0550   50 53  160/  6/  8 1025.6    3/ 7   3/ 7
DUCK             0600   44 43  180/  5/  6 1025.6
2 E DUCK         0611      43                N/A     3/ 8
10 NE DUCK       NOT AVBL
OREGON INLET     0600   43 47  200/  2/  2 1026.4
HATTERAS CG      0600   45 58   80/  3/  4 1026.5
CAPE LOOKOUT     0600   56      60/ 15/ 16 1025.8
BEAUFORT LAB     0600   52 55   80/  5/  9 1025.0
27 SE WRIGHTSVLE 0500   56 63   90/ 17/ 21 1026.8
5 SE WRIGHTSVLE  0600   57 56  110/ 16/ 17 1025.3
225 S CAPE HAT   0550   63 69   50/ 16/ 19 1024.1    6/ 7   3/ 8
41 SE CHARLESTON 0550   65 68   80/ 19/ 23 1023.1    6/ 7   3/ 7

$$



USA.gov is the U.S. government's official web portal to all federal, state and local government web resources and services.